• In Hungary
  • List of Countries
  • For 7 days
  • Water Temperature
  • Satellite Maps
  • Weather Map
  • News
  • Weather Widgets
  • user-avatar
    Login

    Hourly Weather Calcutta

    Today, 16 August, Wednesday

    Time Temperature Precipitation Wind Pressure Humidity
    00:00 +31°C° 0 mm 3 mps 751 mmHg 77%
    01:00 +31°C° 0 mm 3 mps 751 mmHg 77%
    02:00 +30°C° 0 mm 3 mps 751 mmHg 78%
    03:00 +30°C° 0 mm 2 mps 751 mmHg 79%
    04:00 +30°C° 0 mm 2 mps 751 mmHg 79%
    05:00 +30°C° 0 mm 2 mps 751 mmHg 80%
    06:00 +30°C° 0 mm 1 mps 751 mmHg 81%
    07:00 +31°C° 0 mm 2 mps 751 mmHg 76%
    08:00 +33°C° 0 mm 3 mps 751 mmHg 71%
    09:00 +35°C° 0 mm 3 mps 751 mmHg 65%
    10:00 +36°C° 0.1 mm 3 mps 751 mmHg 61%
    11:00 +37°C° 0.1 mm 3 mps 751 mmHg 56%
    12:00 +37°C° 0 mm 3 mps 751 mmHg 53%
    13:00 +37°C° 0.6 mm 3 mps 750 mmHg 55%
    14:00 +37°C° 0.6 mm 3 mps 750 mmHg 56%
    15:00 +37°C° 0.6 mm 3 mps 749 mmHg 57%
    16:00 +36°C° 1.2 mm 3 mps 749 mmHg 61%
    17:00 +36°C° 1.2 mm 3 mps 749 mmHg 64%
    18:00 +35°C° 1.2 mm 3 mps 749 mmHg 67%
    19:00 +34°C° 0.2 mm 3 mps 749 mmHg 70%
    20:00 +34°C° 0.2 mm 3 mps 749 mmHg 72%
    21:00 +33°C° 0.2 mm 3 mps 750 mmHg 75%
    22:00 +33°C° 0.4 mm 3 mps 749 mmHg 76%
    23:00 +31°C° 0.4 mm 3 mps 749 mmHg 78%

    Tomorrow, 17 August, Thursday

    Time Temperature Precipitation Wind Pressure Humidity
    00:00 +31°C° 0.4 mm 3 mps 749 mmHg 79%
    01:00 +31°C° 1.1 mm 3 mps 749 mmHg 79%
    02:00 +31°C° 1.1 mm 3 mps 749 mmHg 79%
    03:00 +31°C° 1.1 mm 3 mps 748 mmHg 79%
    04:00 +31°C° 0.8 mm 2 mps 748 mmHg 80%
    05:00 +30°C° 0.8 mm 2 mps 748 mmHg 80%
    06:00 +30°C° 0.8 mm 1 mps 748 mmHg 80%
    07:00 +32°C° 0.8 mm 1 mps 749 mmHg 74%
    08:00 +33°C° 0.8 mm 1 mps 749 mmHg 69%
    09:00 +34°C° 0.8 mm 1 mps 749 mmHg 63%
    10:00 +35°C° 3.4 mm 2 mps 749 mmHg 63%
    11:00 +36°C° 3.4 mm 2 mps 749 mmHg 63%
    12:00 +36°C° 3.4 mm 3 mps 749 mmHg 64%
    13:00 +36°C° 2.1 mm 3 mps 748 mmHg 63%
    14:00 +36°C° 2.1 mm 3 mps 748 mmHg 62%
    15:00 +36°C° 2.1 mm 3 mps 747 mmHg 61%
    16:00 +36°C° 1.1 mm 3 mps 747 mmHg 65%
    17:00 +35°C° 1.1 mm 3 mps 747 mmHg 69%
    18:00 +34°C° 1.1 mm 3 mps 747 mmHg 72%
    19:00 +33°C° 0 mm 3 mps 748 mmHg 75%
    20:00 +33°C° 0 mm 3 mps 748 mmHg 78%
    21:00 +31°C° 0 mm 3 mps 749 mmHg 80%
    22:00 +31°C° 0.1 mm 3 mps 749 mmHg 82%
    23:00 +30°C° 0.1 mm 3 mps 749 mmHg 83%

    Day after tomorrow, 18 August, Friday

    Time Temperature Precipitation Wind Pressure Humidity
    00:00 +30°C° 0.1 mm 2 mps 749 mmHg 84%
    01:00 +30°C° 0 mm 2 mps 749 mmHg 85%
    02:00 +30°C° 0 mm 2 mps 748 mmHg 86%
    03:00 +29°C° 0 mm 2 mps 748 mmHg 87%
    04:00 +29°C° 0.1 mm 2 mps 748 mmHg 87%
    05:00 +29°C° 0.1 mm 2 mps 749 mmHg 88%
    06:00 +29°C° 0.1 mm 3 mps 749 mmHg 88%
    07:00 +30°C° 0.1 mm 3 mps 749 mmHg 83%
    08:00 +32°C° 0.1 mm 4 mps 750 mmHg 78%
    09:00 +33°C° 0.1 mm 5 mps 750 mmHg 72%
    10:00 +34°C° 0.4 mm 5 mps 750 mmHg 69%
    11:00 +35°C° 0.4 mm 5 mps 750 mmHg 66%
    12:00 +36°C° 0.4 mm 6 mps 750 mmHg 62%
    13:00 +36°C° 1 mm 6 mps 749 mmHg 63%
    14:00 +36°C° 1 mm 6 mps 749 mmHg 63%
    15:00 +36°C° 1 mm 6 mps 748 mmHg 63%
    16:00 +35°C° 0.2 mm 6 mps 748 mmHg 66%
    17:00 +35°C° 0.2 mm 5 mps 748 mmHg 68%
    18:00 +34°C° 0.2 mm 5 mps 748 mmHg 71%
    19:00 +33°C° 0 mm 4 mps 749 mmHg 75%
    20:00 +33°C° 0 mm 4 mps 750 mmHg 78%
    21:00 +31°C° 0 mm 3 mps 750 mmHg 81%
    22:00 +31°C° 0 mm 3 mps 750 mmHg 82%
    23:00 +30°C° 0 mm 3 mps 750 mmHg 83%

    19 August, Saturday

    Time Temperature Precipitation Wind Pressure Humidity
    00:00 +30°C° 0 mm 3 mps 750 mmHg 84%
    01:00 +30°C° 0.1 mm 2 mps 750 mmHg 85%
    02:00 +30°C° 0.1 mm 2 mps 750 mmHg 86%
    03:00 +30°C° 0.1 mm 2 mps 749 mmHg 87%
    04:00 +29°C° 0.1 mm 3 mps 750 mmHg 87%
    05:00 +29°C° 0.1 mm 3 mps 750 mmHg 88%
    06:00 +29°C° 0.1 mm 3 mps 750 mmHg 88%
    07:00 +30°C° 0.1 mm 4 mps 751 mmHg 83%
    08:00 +33°C° 0.1 mm 4 mps 751 mmHg 77%
    09:00 +34°C° 0.1 mm 5 mps 752 mmHg 72%
    10:00 +35°C° 0.1 mm 5 mps 751 mmHg 68%
    11:00 +36°C° 0.1 mm 5 mps 751 mmHg 63%
    12:00 +37°C° 0.1 mm 5 mps 751 mmHg 59%
    13:00 +36°C° 0.5 mm 6 mps 750 mmHg 60%
    14:00 +36°C° 0.5 mm 6 mps 750 mmHg 60%
    15:00 +36°C° 0.5 mm 6 mps 749 mmHg 60%
    16:00 +35°C° 0.5 mm 5 mps 749 mmHg 63%
    17:00 +35°C° 0.5 mm 5 mps 749 mmHg 67%
    18:00 +34°C° 0.5 mm 4 mps 750 mmHg 70%
    19:00 +33°C° 0 mm 4 mps 750 mmHg 73%
    20:00 +32°C° 0 mm 4 mps 751 mmHg 76%
    21:00 +31°C° 0 mm 3 mps 751 mmHg 79%
    22:00 +31°C° 0.1 mm 3 mps 751 mmHg 80%
    23:00 +30°C° 0.1 mm 3 mps 751 mmHg 82%

    20 August, Sunday

    Time Temperature Precipitation Wind Pressure Humidity
    00:00 +30°C° 0.1 mm 3 mps 751 mmHg 83%
    01:00 +30°C° 0.3 mm 3 mps 751 mmHg 84%
    02:00 +30°C° 0.3 mm 3 mps 750 mmHg 85%
    03:00 +29°C° 0.3 mm 2 mps 750 mmHg 86%
    04:00 +29°C° 0.1 mm 2 mps 750 mmHg 87%
    05:00 +29°C° 0.1 mm 3 mps 750 mmHg 87%
    06:00 +29°C° 0.1 mm 3 mps 751 mmHg 88%
    07:00 +30°C° 0.7 mm 3 mps 751 mmHg 83%
    08:00 +32°C° 0.7 mm 4 mps 751 mmHg 77%
    09:00 +34°C° 0.7 mm 4 mps 752 mmHg 72%
    10:00 +34°C° 0.9 mm 5 mps 751 mmHg 70%
    11:00 +35°C° 0.9 mm 5 mps 751 mmHg 67%
    12:00 +36°C° 0.9 mm 5 mps 751 mmHg 64%
    13:00 +36°C° 1.2 mm 5 mps 750 mmHg 64%
    14:00 +36°C° 1.2 mm 5 mps 749 mmHg 64%
    15:00 +36°C° 1.2 mm 5 mps 748 mmHg 63%
    16:00 +35°C° 0.5 mm 5 mps 749 mmHg 67%
    17:00 +34°C° 0.5 mm 5 mps 749 mmHg 70%
    18:00 +34°C° 0.5 mm 4 mps 749 mmHg 73%
    19:00 +33°C° 0 mm 4 mps 749 mmHg 76%
    20:00 +32°C° 0 mm 4 mps 750 mmHg 79%
    21:00 +32°C° 0 mm 4 mps 750 mmHg 82%
    22:00 +30°C° 0 mm 3 mps 750 mmHg 83%
    23:00 +30°C° 0 mm 3 mps 750 mmHg 85%

    21 August, Monday

    Time Temperature Precipitation Wind Pressure Humidity
    00:00 +30°C° 0 mm 3 mps 750 mmHg 86%
    01:00 +30°C° 0.6 mm 3 mps 750 mmHg 86%
    02:00 +30°C° 0.6 mm 3 mps 750 mmHg 87%
    03:00 +29°C° 0.6 mm 3 mps 749 mmHg 87%
    04:00 +29°C° 0.8 mm 2 mps 749 mmHg 87%
    05:00 +29°C° 0.8 mm 2 mps 750 mmHg 87%
    06:00 +29°C° 0.8 mm 2 mps 750 mmHg 87%
    07:00 +30°C° 0.2 mm 2 mps 750 mmHg 82%
    08:00 +31°C° 0.2 mm 3 mps 751 mmHg 77%
    09:00 +33°C° 0.2 mm 3 mps 751 mmHg 71%
    10:00 +34°C° 0.1 mm 4 mps 751 mmHg 68%
    11:00 +35°C° 0.1 mm 4 mps 750 mmHg 65%
    12:00 +36°C° 0.1 mm 4 mps 750 mmHg 62%
    13:00 +36°C° 0.4 mm 4 mps 749 mmHg 62%
    14:00 +36°C° 0.4 mm 4 mps 749 mmHg 62%
    15:00 +36°C° 0.4 mm 5 mps 748 mmHg 62%
    16:00 +35°C° 0.4 mm 4 mps 748 mmHg 65%
    17:00 +34°C° 0.4 mm 4 mps 748 mmHg 69%
    18:00 +33°C° 0.4 mm 4 mps 748 mmHg 73%
    19:00 +33°C° 0 mm 4 mps 749 mmHg 76%
    20:00 +32°C° 0 mm 4 mps 749 mmHg 78%
    21:00 +31°C° 0 mm 3 mps 750 mmHg 81%
    22:00 +30°C° 0.1 mm 3 mps 750 mmHg 83%
    23:00 +30°C° 0.1 mm 3 mps 750 mmHg 84%
    Show more